Hourly Weather Goiania

Today, 3 August, Monday

Time Temperature Precipitation Wind Pressure Humidity
00:00 +18°C° 0 mm 2 mps 703 mmHg 57%
01:00 +18°C° 0 mm 2 mps 703 mmHg 58%
02:00 +17°C° 0 mm 2 mps 703 mmHg 58%
03:00 +17°C° 0 mm 2 mps 703 mmHg 59%
04:00 +16°C° 0 mm 2 mps 703 mmHg 62%
05:00 +16°C° 0 mm 2 mps 703 mmHg 64%
06:00 +16°C° 0 mm 3 mps 703 mmHg 66%
07:00 +17°C° 0 mm 3 mps 704 mmHg 62%
08:00 +19°C° 0 mm 4 mps 705 mmHg 58%
09:00 +21°C° 0 mm 5 mps 705 mmHg 54%
10:00 +23°C° 0 mm 5 mps 705 mmHg 47%
11:00 +26°C° 0 mm 4 mps 705 mmHg 41%
12:00 +28°C° 0 mm 4 mps 705 mmHg 34%
13:00 +29°C° 0 mm 3 mps 705 mmHg 31%
14:00 +30°C° 0 mm 3 mps 704 mmHg 29%
15:00 +31°C° 0 mm 3 mps 703 mmHg 26%
16:00 +29°C° 0 mm 3 mps 703 mmHg 29%
17:00 +27°C° 0 mm 2 mps 703 mmHg 33%
18:00 +25°C° 0 mm 2 mps 703 mmHg 36%
19:00 +24°C° 0 mm 3 mps 703 mmHg 40%
20:00 +22°C° 0 mm 3 mps 703 mmHg 44%
21:00 +21°C° 0 mm 3 mps 704 mmHg 48%
22:00 +20°C° 0 mm 3 mps 704 mmHg 49%
23:00 +19°C° 0 mm 3 mps 704 mmHg 51%

Tomorrow, 4 August, Tuesday

Time Temperature Precipitation Wind Pressure Humidity
00:00 +19°C° 0 mm 3 mps 704 mmHg 52%
01:00 +18°C° 0 mm 3 mps 703 mmHg 50%
02:00 +18°C° 0 mm 3 mps 703 mmHg 48%
03:00 +17°C° 0 mm 3 mps 703 mmHg 46%
04:00 +16°C° 0 mm 3 mps 703 mmHg 46%
05:00 +16°C° 0 mm 3 mps 703 mmHg 47%
06:00 +14°C° 0 mm 4 mps 703 mmHg 47%
07:00 +17°C° 0 mm 4 mps 704 mmHg 47%
08:00 +19°C° 0 mm 5 mps 704 mmHg 47%
09:00 +21°C° 0 mm 5 mps 705 mmHg 47%
10:00 +23°C° 0 mm 5 mps 705 mmHg 41%
11:00 +26°C° 0 mm 5 mps 705 mmHg 35%
12:00 +28°C° 0 mm 4 mps 706 mmHg 30%
13:00 +29°C° 0 mm 4 mps 705 mmHg 27%
14:00 +30°C° 0 mm 4 mps 704 mmHg 25%
15:00 +30°C° 0 mm 4 mps 703 mmHg 23%
16:00 +28°C° 0 mm 3 mps 703 mmHg 25%
17:00 +27°C° 0 mm 3 mps 703 mmHg 28%
18:00 +25°C° 0 mm 2 mps 703 mmHg 31%
19:00 +23°C° 0 mm 2 mps 703 mmHg 34%
20:00 +21°C° 0 mm 3 mps 703 mmHg 38%
21:00 +19°C° 0 mm 3 mps 703 mmHg 41%
22:00 +18°C° 0 mm 3 mps 703 mmHg 42%
23:00 +18°C° 0 mm 3 mps 703 mmHg 43%

Day after tomorrow, 5 August, Wednesday

Time Temperature Precipitation Wind Pressure Humidity
00:00 +17°C° 0 mm 2 mps 703 mmHg 43%
01:00 +17°C° 0 mm 2 mps 703 mmHg 44%
02:00 +16°C° 0 mm 2 mps 703 mmHg 45%
03:00 +15°C° 0 mm 2 mps 702 mmHg 45%
04:00 +14°C° 0 mm 3 mps 702 mmHg 47%
05:00 +14°C° 0 mm 3 mps 702 mmHg 50%
06:00 +14°C° 0 mm 4 mps 702 mmHg 52%
07:00 +17°C° 0 mm 4 mps 703 mmHg 50%
08:00 +19°C° 0 mm 5 mps 704 mmHg 47%
09:00 +20°C° 0 mm 5 mps 705 mmHg 45%
10:00 +23°C° 0 mm 5 mps 705 mmHg 39%
11:00 +26°C° 0 mm 4 mps 705 mmHg 34%
12:00 +28°C° 0 mm 4 mps 705 mmHg 28%
13:00 +29°C° 0 mm 4 mps 704 mmHg 26%
14:00 +30°C° 0 mm 3 mps 704 mmHg 23%
15:00 +31°C° 0 mm 3 mps 703 mmHg 21%
16:00 +29°C° 0 mm 3 mps 702 mmHg 24%
17:00 +27°C° 0 mm 3 mps 702 mmHg 27%
18:00 +25°C° 0 mm 3 mps 702 mmHg 30%
19:00 +24°C° 0 mm 3 mps 702 mmHg 35%
20:00 +21°C° 0 mm 3 mps 702 mmHg 40%
21:00 +20°C° 0 mm 3 mps 702 mmHg 45%
22:00 +19°C° 0 mm 3 mps 702 mmHg 47%
23:00 +18°C° 0 mm 2 mps 702 mmHg 49%

6 August, Thursday

Time Temperature Precipitation Wind Pressure Humidity
00:00 +17°C° 0 mm 2 mps 703 mmHg 51%
01:00 +17°C° 0 mm 2 mps 702 mmHg 53%
02:00 +16°C° 0 mm 2 mps 702 mmHg 54%
03:00 +16°C° 0 mm 2 mps 702 mmHg 56%
04:00 +14°C° 0 mm 3 mps 702 mmHg 59%
05:00 +14°C° 0 mm 3 mps 702 mmHg 63%
06:00 +14°C° 0 mm 3 mps 702 mmHg 67%
07:00 +17°C° 0 mm 4 mps 703 mmHg 62%
08:00 +19°C° 0 mm 5 mps 704 mmHg 58%
09:00 +21°C° 0 mm 5 mps 704 mmHg 54%
10:00 +23°C° 0 mm 5 mps 704 mmHg 47%
11:00 +26°C° 0 mm 5 mps 704 mmHg 41%
12:00 +28°C° 0 mm 4 mps 705 mmHg 34%
13:00 +29°C° 0 mm 4 mps 704 mmHg 31%
14:00 +30°C° 0 mm 4 mps 703 mmHg 28%
15:00 +30°C° 0 mm 3 mps 703 mmHg 25%
16:00 +29°C° 0 mm 3 mps 702 mmHg 28%
17:00 +27°C° 0 mm 3 mps 702 mmHg 32%
18:00 +25°C° 0 mm 2 mps 702 mmHg 36%
19:00 +24°C° 0 mm 2 mps 702 mmHg 40%
20:00 +21°C° 0 mm 2 mps 703 mmHg 44%
21:00 +20°C° 0 mm 3 mps 703 mmHg 49%
22:00 +19°C° 0 mm 2 mps 703 mmHg 50%
23:00 +18°C° 0 mm 2 mps 703 mmHg 52%

7 August, Friday

Time Temperature Precipitation Wind Pressure Humidity
00:00 +18°C° 0 mm 2 mps 703 mmHg 54%
01:00 +17°C° 0 mm 2 mps 703 mmHg 55%
02:00 +17°C° 0 mm 2 mps 702 mmHg 55%
03:00 +16°C° 0 mm 2 mps 702 mmHg 56%
04:00 +16°C° 0 mm 3 mps 702 mmHg 57%
05:00 +16°C° 0 mm 3 mps 702 mmHg 58%
06:00 +14°C° 0 mm 3 mps 703 mmHg 59%
07:00 +17°C° 0 mm 4 mps 703 mmHg 55%
08:00 +19°C° 0 mm 5 mps 704 mmHg 51%
09:00 +21°C° 0 mm 5 mps 705 mmHg 47%
10:00 +25°C° 0 mm 5 mps 705 mmHg 40%
11:00 +27°C° 0 mm 4 mps 705 mmHg 34%
12:00 +29°C° 0 mm 4 mps 705 mmHg 28%
13:00 +29°C° 0 mm 4 mps 704 mmHg 26%
14:00 +30°C° 0 mm 3 mps 703 mmHg 24%
15:00 +30°C° 0 mm 3 mps 702 mmHg 23%
16:00 +29°C° 0 mm 3 mps 702 mmHg 26%
17:00 +27°C° 0 mm 2 mps 702 mmHg 29%
18:00 +25°C° 0 mm 2 mps 702 mmHg 32%
19:00 +24°C° 0 mm 2 mps 702 mmHg 38%
20:00 +23°C° 0 mm 2 mps 702 mmHg 43%
21:00 +21°C° 0 mm 3 mps 703 mmHg 48%
22:00 +20°C° 0 mm 3 mps 702 mmHg 50%
23:00 +19°C° 0 mm 3 mps 702 mmHg 53%

8 August, Saturday

Time Temperature Precipitation Wind Pressure Humidity
00:00 +19°C° 0 mm 3 mps 702 mmHg 55%
01:00 +18°C° 0 mm 3 mps 702 mmHg 57%
02:00 +18°C° 0 mm 2 mps 702 mmHg 60%
03:00 +17°C° 0 mm 2 mps 702 mmHg 63%
04:00 +17°C° 0 mm 2 mps 702 mmHg 65%
05:00 +16°C° 0 mm 2 mps 702 mmHg 67%
06:00 +16°C° 0 mm 2 mps 702 mmHg 69%
07:00 +18°C° 0 mm 3 mps 703 mmHg 62%
08:00 +20°C° 0 mm 4 mps 704 mmHg 54%
09:00 +22°C° 0 mm 5 mps 705 mmHg 47%
10:00 +25°C° 0 mm 5 mps 704 mmHg 41%
11:00 +27°C° 0 mm 4 mps 704 mmHg 35%
12:00 +29°C° 0 mm 4 mps 704 mmHg 29%
13:00 +29°C° 0 mm 4 mps 704 mmHg 28%
14:00 +30°C° 0 mm 3 mps 703 mmHg 26%
15:00 +31°C° 0 mm 3 mps 702 mmHg 24%
16:00 +29°C° 0 mm 3 mps 702 mmHg 27%
17:00 +27°C° 0 mm 3 mps 702 mmHg 30%
18:00 +26°C° 0 mm 3 mps 702 mmHg 33%
19:00 +24°C° 0 mm 3 mps 702 mmHg 36%
20:00 +22°C° 0 mm 3 mps 702 mmHg 38%
21:00 +21°C° 0 mm 3 mps 703 mmHg 41%
22:00 +20°C° 0 mm 3 mps 702 mmHg 43%
23:00 +20°C° 0 mm 3 mps 702 mmHg 46%
Show more